Wetbulb
76.47 75.06 74.29 73.73 72.23 71.80 71.46 70.40 71.47 71.54 71.76 71.94 70.72 70.47 70.71 69.98 69.78 70.29 69.38 69.47 68.84 67.15
75.92 75.47 74.25 73.46 72.12 71.67 71.73 70.11 71.21 71.37 71.40 70.74 69.61 70.24 70.71 69.30 69.62 69.91 69.97 69.53 69.67 68.21
75.09 73.07 74.29 72.85 70.28 71.16 71.13 70.74 70.91 70.97 70.36 69.63 69.90 69.95 70.35 69.14 69.22 69.22 69.05 68.76 69.23 69.03
73.60 72.98 71.45 71.21 70.04 68.06 70.56 69.96 70.27 70.38 69.78 69.62 69.74 69.70 69.59 69.67 69.34 68.55 69.13 69.22 68.84 68.72
72.73 69.42 71.12 65.74 68.77 69.83 68.79 69.17 69.71 69.69 69.20 69.35 69.04 69.73 69.32 68.89 68.24 68.32 68.18 68.35 68.81 68.40
71.64 69.08 68.23 69.11 67.75 68.49 68.64 67.98 68.47 68.18 68.25 67.98 68.57 69.26 69.84 68.91 68.44 68.54 68.08 68.36 68.35 68.20
72.02 70.89 69.30 66.54 66.43 65.14 65.61 66.60 67.08 66.95 67.93 68.44 69.06 69.07 69.05 68.13 68.32 68.70 68.38 68.34 68.34 68.44
72.02 71.26 69.55 68.12 66.79 65.74 64.49 65.26 65.48 65.99 67.14 67.55 66.35 67.37 67.82 68.14 68.57 69.00 68.62 68.70 68.65 68.81
71.72 69.86 69.12 68.65 68.26 66.76 64.97 66.03 66.18 65.53 66.18 66.09 66.13 63.08 62.55 66.19 68.58 69.16 68.56 67.93 68.37 68.74
71.24 69.29 69.13 68.88 67.79 66.94 64.22 64.44 66.34 66.41 66.83 66.92 68.25 61.38 60.80 63.08 67.67 68.28 68.21 68.79 67.77 67.29
70.36 69.69 69.24 69.40 67.84 67.30 67.60 63.71 65.23 66.96 66.96 67.25 68.38 60.85 59.66 61.52 66.29 67.94 65.51 66.50 66.95 65.98
70.42 69.76 68.91 68.46 66.78 66.30 66.88 66.61 67.72 66.99 66.84 68.13 68.70 58.88 58.13 61.62 66.39 66.18 65.71 66.73 65.88 64.73
70.76 69.84 68.76 66.94 66.59 67.95 68.44 67.51 66.55 67.25 67.73 65.01 68.13 60.01 56.72 61.96 66.01 65.29 63.34 66.43 64.43 57.86
70.03 69.00 66.94 67.08 67.66 68.24 67.53 66.77 65.31 66.50 67.35 68.39 66.16 65.41 56.88 55.05 65.41 63.73 63.95 63.57 62.66 62.83
MSLP
1013.54 1013.85 1014.22 1014.64 1014.83 1015.29 1015.69 1016.06 1016.46 1017.06 1017.41 1017.81 1018.20 1018.33 1018.55 1018.70 1018.71 1018.83 1018.86 1018.98 1019.05 1018.89
1013.04 1013.43 1013.76 1014.36 1014.74 1014.96 1015.44 1015.75 1016.22 1016.47 1017.06 1017.47 1017.82 1018.11 1018.12 1018.10 1018.29 1018.50 1018.63 1018.70 1018.86 1018.92
1012.25 1013.01 1013.33 1014.08 1014.64 1014.67 1015.22 1015.62 1015.91 1016.26 1016.84 1017.31 1017.57 1017.71 1018.15 1018.15 1018.28 1018.35 1018.24 1018.33 1018.43 1018.40
1011.43 1012.36 1012.97 1013.30 1013.96 1015.31 1014.31 1015.19 1015.56 1016.06 1016.59 1016.98 1017.29 1017.56 1017.82 1018.12 1018.12 1018.13 1018.03 1018.13 1017.99 1017.87
1010.79 1011.41 1012.09 1012.77 1013.02 1014.06 1015.76 1014.94 1015.67 1016.07 1016.51 1016.75 1017.07 1017.41 1017.63 1017.77 1017.85 1017.89 1017.53 1017.47 1017.61 1017.53
1009.79 1010.52 1010.89 1012.06 1014.30 1015.82 1015.71 1016.67 1016.02 1016.24 1016.27 1016.41 1016.74 1016.79 1017.00 1017.12 1017.53 1017.61 1017.25 1016.99 1016.94 1016.94
1008.67 1009.32 1010.86 1012.34 1013.10 1013.45 1016.05 1015.13 1017.30 1016.15 1015.28 1015.96 1016.23 1016.20 1016.48 1016.61 1016.93 1017.00 1016.91 1016.47 1016.46 1016.45
1008.56 1009.56 1010.71 1011.59 1012.34 1012.89 1013.37 1012.57 1016.31 1015.19 1014.84 1014.47 1015.06 1015.70 1016.02 1016.18 1016.26 1016.31 1016.12 1015.80 1015.73 1015.68
1008.06 1008.81 1009.56 1010.62 1011.27 1011.97 1012.85 1014.39 1014.72 1015.08 1014.93 1014.82 1014.44 1014.81 1015.43 1015.65 1015.35 1015.68 1015.41 1015.04 1014.93 1015.24
1007.55 1008.38 1009.00 1009.78 1010.76 1011.71 1012.39 1013.14 1013.24 1013.92 1013.89 1014.05 1014.16 1014.32 1014.99 1015.26 1015.42 1015.00 1014.96 1014.59 1014.66 1014.69
1007.12 1007.62 1008.43 1009.15 1010.00 1011.16 1011.73 1011.91 1011.62 1012.58 1013.03 1013.30 1013.39 1013.79 1014.06 1014.77 1014.75 1014.74 1014.80 1014.51 1014.40 1014.53
1007.03 1007.63 1008.08 1008.40 1009.26 1010.41 1011.24 1011.76 1011.74 1012.18 1012.50 1013.08 1013.01 1013.50 1013.62 1013.95 1013.98 1014.21 1014.20 1014.21 1014.18 1014.31
1006.22 1006.81 1007.54 1008.65 1009.24 1009.52 1010.22 1010.65 1011.21 1011.69 1012.22 1012.03 1012.10 1012.17 1012.39 1013.08 1013.07 1013.32 1013.58 1013.48 1013.88 1014.14
1005.57 1006.66 1006.96 1007.84 1008.54 1008.99 1009.55 1009.98 1010.12 1010.04 1010.62 1010.84 1011.21 1011.84 1012.36 1012.77 1012.74 1012.63 1012.78 1012.96 1013.10 1013.65
Wind_Speed
15 11 10 11 9 9 9 9 8 8 8 8 6 6 6 5 5 5 5 6 6 5
14 14 12 11 10 9 9 7 8 9 10 9 8 8 7 5 5 5 6 7 7 7
16 11 12 10 11 12 10 9 10 11 10 10 9 7 6 6 6 6 6 6 7 8
13 15 12 10 11 7 12 12 11 11 10 9 8 8 7 8 8 8 8 8 9 9
16 13 13 12 12 13 9 10 9 9 9 8 8 8 8 9 8 10 9 9 8 9
17 15 17 13 7 1 5 3 7 6 6 7 9 9 10 9 9 10 9 8 9 10
18 17 10 12 12 14 4 7 8 7 7 7 10 10 10 9 10 10 10 10 10 11
13 12 13 14 14 14 12 13 15 11 9 11 8 9 10 10 11 11 11 10 10 10
14 16 16 17 16 14 11 6 12 13 11 11 7 10 11 11 9 11 11 11 11 8
15 16 17 18 16 15 13 16 17 16 12 11 11 9 8 9 9 10 11 10 10 9
16 17 17 18 17 14 14 16 16 16 12 10 11 10 11 8 8 9 7 9 11 9
15 15 17 18 16 11 11 12 13 10 9 12 11 10 10 8 4 9 11 10 8 8
15 16 16 13 11 10 11 10 8 9 9 13 13 17 10 5 3 8 7 7 6 6
14 12 13 12 9 10 11 11 12 13 12 12 9 5 7 7 5 7 8 7 4 3
Wind_Direction
208 206 207 204 200 198 200 198 190 198 205 204 205 202 202 213 225 214 220 218 226 236
204 209 207 207 200 198 195 190 186 190 193 196 195 203 202 220 221 227 230 232 233 238
205 196 201 198 206 197 190 195 183 188 195 198 203 206 216 226 225 228 229 233 226 236
194 195 205 210 181 231 180 186 191 190 199 202 204 212 216 238 248 239 246 240 236 241
196 192 198 187 203 176 222 175 188 195 203 204 214 222 225 241 248 245 243 247 244 252
201 193 194 197 112 4 156 249 199 195 203 204 226 229 232 235 247 250 249 252 254 261
203 202 180 138 148 125 153 93 280 226 194 216 230 229 238 232 240 249 254 252 255 257
201 191 165 157 149 144 162 131 235 231 217 202 206 236 227 232 242 250 257 259 261 259
190 176 175 167 166 164 163 166 233 244 237 222 213 215 218 236 245 253 259 266 269 264
185 183 179 174 173 174 172 186 209 238 232 228 226 200 215 218 251 261 263 266 277 277
187 188 181 181 176 181 201 203 203 218 214 220 229 192 213 199 245 270 268 267 266 260
195 190 187 188 179 178 194 216 217 210 205 226 237 212 221 195 295 270 272 270 251 240
189 189 191 188 180 176 205 207 184 185 209 214 216 210 189 145 183 260 260 254 235 209
179 185 175 175 179 189 195 185 186 185 196 208 218 177 188 177 199 236 260 248 230 214